User: anonymous   Login
Location: Unspecified
(0.0000°N, 0.0000°E)
Time: 12:16:12
(UTC+00:00)
Language:

USA 186 - Orbit

View from above orbital plane
View from above orbital plane
View from above satellite
View from above satellite

Ground track
Ground track

The orbit data is extracted from the following two-line orbital elements,

1 28888U 05042A   16204.80360054 0.00023500  00000-0  10222-3 0    07
2 28888  96.8859 242.5472 0137725 288.8577  71.1421 15.71680934    07
Epoch (UTC): 22 July 2016 19:17:11
Eccentricity: 0.0137725
inclination: 96.8859°
perigee height: 261 km
apogee height: 447 km
right ascension of ascending node: 242.5472°
argument of perigee: 288.8577°
revolutions per day: 15.71680934
mean anomaly at epoch: 71.1421°
orbit number at epoch: 0

The dashed part of the orbit path shows where the satellite is in the earth's shadow,  

DLR